Snowfall_Accumulation
0.5 0.9 1.0 1.0 1.0 0.4 0.4 0.7 0.4 0.4 0.1 0.0 0.0 0.1 0.1 0.1 0.0 0.1 0.1 0.1 0.1 0.1 0.1 0.1 0.1 0.1 0.1 0.1 0.1 0.2 0.2 0.3 0.6 0.2 0.1 0.1 0.1 0.1 0.0 0.0 0.0 0.0 0.0
0.5 0.5 0.7 1.1 0.9 1.0 0.8 0.8 0.7 0.5 0.4 0.3 0.0 0.1 0.1 0.1 0.2 0.1 0.1 0.1 0.1 0.1 0.1 0.1 0.2 0.2 0.1 0.2 0.2 0.3 0.3 0.4 1.1 1.1 0.3 0.2 0.3 0.2 0.2 0.1 0.0 0.0 0.0
0.6 0.5 0.6 0.8 0.9 1.0 0.9 0.9 0.8 0.8 0.7 0.5 0.4 0.3 0.4 0.2 0.2 0.2 0.3 0.2 0.1 0.1 0.2 0.2 0.2 0.3 0.3 0.3 0.4 0.4 0.5 0.5 0.9 1.3 0.7 0.2 0.2 0.1 0.2 0.1 0.1 0.0 0.0
0.6 0.5 0.6 0.5 0.7 0.7 0.8 0.8 0.8 0.7 0.8 0.8 0.6 0.6 0.6 0.4 0.4 0.3 0.4 0.5 0.3 0.4 0.4 0.5 0.7 0.7 0.7 0.6 0.7 0.7 1.0 1.2 1.3 1.6 1.8 1.2 0.9 0.5 0.5 0.4 0.2 0.2 0.1
0.7 0.6 0.5 0.3 0.4 0.5 0.6 0.6 0.5 0.7 0.5 0.6 0.7 0.6 0.6 0.5 0.6 0.7 0.9 0.9 0.9 0.8 0.7 0.6 0.5 0.4 0.4 0.5 0.9 1.2 1.6 2.2 2.8 3.2 2.9 2.0 1.1 1.0 1.1 0.9 1.1 0.5 0.4
1.0 0.9 0.6 0.4 0.3 0.3 0.4 0.4 0.3 0.4 0.4 0.5 0.5 0.7 0.7 0.7 0.5 0.9 1.0 1.0 0.9 0.9 0.7 0.9 0.5 0.6 0.5 0.5 0.7 1.2 2.2 3.7 4.6 4.8 4.3 3.1 1.7 1.3 1.2 1.5 2.0 2.7 2.1
1.3 1.4 0.8 0.5 0.5 0.3 0.5 0.3 0.5 0.5 0.6 0.4 0.4 0.6 0.7 0.5 0.5 0.7 0.9 1.1 1.3 1.1 1.3 1.1 0.9 0.7 0.7 0.7 0.7 1.1 1.7 2.2 3.0 3.7 3.8 2.3 1.7 1.5 2.8 4.1 4.2 4.6 3.4
2.0 1.5 1.4 1.2 0.9 0.9 0.8 0.9 0.8 0.8 0.8 0.7 0.9 0.8 0.8 0.4 0.4 0.5 0.7 1.1 1.2 1.3 1.1 0.9 0.9 0.8 0.7 1.1 1.8 2.2 1.3 0.8 0.9 1.0 1.4 1.4 1.4 1.7 3.5 5.9 5.9 4.5 2.2
2.1 2.3 2.1 2.1 1.9 1.2 1.2 1.0 0.8 0.8 0.9 0.8 1.0 1.0 0.8 0.7 0.3 0.5 0.9 1.1 1.1 1.0 0.7 0.7 0.9 0.9 0.9 2.2 3.7 3.4 1.8 0.6 0.3 0.7 1.1 1.2 1.1 1.3 1.9 5.0 6.8 7.4 5.3
2.7 2.6 2.6 2.3 2.6 2.1 1.4 1.3 1.2 1.2 1.3 1.3 1.3 1.0 0.9 1.0 0.7 0.4 1.1 1.5 1.6 1.5 0.9 0.7 0.8 1.0 1.6 3.0 3.8 3.7 2.8 1.2 1.3 1.1 0.7 0.5 0.5 0.6 0.9 3.5 8.1 13.0 10.3
2.7 2.2 2.4 2.5 3.1 2.7 1.9 1.7 2.1 1.5 1.6 1.6 1.6 1.4 1.1 0.7 0.4 0.4 0.8 1.6 2.5 2.6 1.7 1.2 0.5 1.3 2.4 2.9 2.9 2.5 2.6 3.2 2.6 1.8 1.4 1.2 1.2 1.2 1.0 1.9 4.4 12.0 16.2
2.9 2.6 2.8 3.0 3.1 2.6 2.5 2.6 2.7 2.4 2.3 2.0 1.9 1.8 1.4 0.7 0.4 0.5 0.9 1.7 2.5 3.1 2.4 1.3 1.1 2.0 2.3 2.0 1.7 1.8 2.2 2.4 2.2 2.4 2.3 2.2 2.3 2.5 2.7 2.9 3.9 6.1 9.3
3.0 2.9 2.7 3.0 3.0 3.2 2.5 2.7 2.4 2.3 2.4 2.2 2.0 1.9 1.4 1.0 0.7 0.7 1.0 1.7 2.0 2.3 1.8 1.9 2.1 1.9 1.9 1.8 1.4 1.8 2.1 2.6 3.5 4.6 4.1 3.1 3.1 3.6 3.8 4.8 5.1 5.3 5.9
3.7 4.0 3.6 3.2 3.5 3.1 3.0 2.7 2.7 2.8 2.7 2.7 2.2 2.1 1.9 1.5 1.4 1.4 1.8 1.7 1.9 2.2 2.2 1.9 1.8 1.4 1.6 1.8 1.8 2.1 2.2 3.2 5.2 6.8 6.0 4.6 4.3 5.2 6.8 8.2 9.8 10.3 12.2
3.4 3.8 3.7 3.7 3.8 3.8 3.4 3.4 3.6 3.8 3.6 4.2 4.2 3.2 3.5 3.1 2.3 3.0 3.8 3.5 3.6 3.3 3.1 2.3 2.3 2.3 2.4 2.6 2.4 2.5 2.8 3.3 5.2 6.3 7.2 7.9 7.8 8.9 10.5 12.3 13.8 14.0 13.9
3.2 3.3 3.7 3.7 3.5 3.7 3.9 4.0 3.3 3.2 3.2 2.8 3.0 3.5 3.6 3.1 3.1 3.4 3.3 3.6 3.4 3.2 3.4 3.7 3.2 3.2 3.5 3.3 3.6 3.5 3.5 4.6 6.3 8.1 9.3 10.5 12.4 13.2 13.5 13.2 13.9 14.5 13.7
3.6 3.8 3.9 3.6 3.8 4.0 4.2 4.3 4.0 3.4 2.3 2.5 2.2 2.5 2.9 2.7 2.9 2.9 3.0 3.1 2.6 2.6 4.0 4.1 3.8 4.0 4.2 4.6 4.8 5.6 5.3 5.5 7.4 10.0 12.5 14.4 15.2 15.6 15.3 14.7 13.4 12.4 10.9
2.8 3.2 3.3 3.2 3.4 3.6 3.8 4.1 4.2 4.1 3.3 2.8 2.4 2.6 2.6 2.7 2.8 2.7 2.9 2.8 2.8 2.7 4.2 5.5 5.6 5.1 5.3 6.0 6.6 7.5 8.3 8.8 9.9 12.6 14.1 15.5 16.8 17.5 16.1 13.7 11.7 10.9 9.9
2.3 2.6 2.6 2.9 3.1 3.3 3.5 3.7 3.9 4.0 3.9 3.9 3.4 3.3 2.8 2.3 2.4 2.8 2.6 3.6 4.5 4.7 5.7 6.3 6.5 6.4 6.0 7.2 8.2 9.6 11.2 12.9 13.5 15.6 16.3 16.8 17.3 17.4 14.7 11.1 9.4 8.1 8.6
2.3 2.5 2.7 2.7 2.7 3.0 3.2 3.7 4.1 4.4 4.4 4.0 3.9 4.0 3.8 3.3 3.9 3.3 3.3 3.9 4.5 4.9 5.1 5.7 6.1 6.4 6.8 8.3 9.4 11.1 12.8 13.7 14.9 16.0 16.9 16.7 15.6 14.4 12.6 9.5 8.5 8.7 8.3
2.5 2.3 2.5 2.5 2.7 2.9 3.2 3.7 4.1 4.3 4.3 4.3 4.6 4.5 4.8 5.8 5.3 4.5 4.7 4.5 5.0 5.3 5.5 6.3 7.1 7.4 8.1 9.4 11.2 12.3 13.1 13.9 15.5 16.8 16.8 15.4 13.5 11.3 9.0 8.6 8.6 8.7 8.7
2.8 2.8 3.0 2.9 3.1 3.3 3.5 3.7 3.9 4.2 4.2 4.1 3.9 4.0 4.1 4.8 4.6 4.8 5.1 4.7 4.6 5.0 5.4 6.4 6.8 7.3 9.7 12.9 15.1 16.0 15.1 14.3 14.4 15.5 15.0 12.9 10.8 9.6 9.1 9.0 8.7 9.1 9.3
2.9 3.1 3.2 3.3 3.3 3.7 4.0 3.8 4.0 4.1 4.0 4.2 4.2 4.3 4.4 4.6 4.7 4.8 4.9 4.9 4.4 4.5 4.7 5.6 6.6 7.1 8.4 12.1 15.9 19.6 21.1 18.4 16.6 16.8 17.0 14.5 11.8 10.8 10.5 10.6 10.0 9.6 8.9
3.0 3.0 3.2 3.3 3.6 3.9 4.1 3.9 3.8 4.0 4.1 4.3 4.3 4.5 4.8 4.6 4.5 4.5 4.5 4.5 4.6 4.2 4.3 5.1 6.2 7.2 8.7 11.9 14.6 16.7 18.4 19.6 20.4 19.8 18.6 17.5 14.2 11.7 11.2 10.6 9.8 9.2 9.2
3.1 3.4 3.7 3.6 3.9 4.0 4.1 4.2 4.2 4.1 4.2 4.3 4.5 4.6 4.5 4.5 4.4 4.2 4.2 4.4 4.5 4.1 4.0 4.6 5.9 7.6 9.4 11.8 14.0 15.7 16.2 16.7 16.4 16.4 16.0 15.0 12.8 10.9 10.8 10.7 9.6 9.0 8.8
3.8 4.1 4.1 4.1 4.2 4.4 4.4 4.6 4.4 4.5 4.5 4.5 4.6 4.6 4.7 4.8 4.5 4.4 4.4 4.5 4.7 4.4 4.3 4.2 5.0 7.0 9.3 11.6 13.2 15.0 15.1 13.4 11.3 10.4 12.1 13.4 12.0 10.4 10.1 10.8 9.7 9.4 9.1